Regional Weather Roundup
Issued by NWS

Home | Current Version | Previous Version | Graphics & Text | Print | Product List | Glossary On
Versions: 1 2 3 4 5 6 7 8 9 10 11 12 13 14 15 16 17 18 19 20 21 22 23 24 25 26 27 28 29 30 31 32 33 34 35 36 37 38 39 40 41 42 43 44 45 46 47 48 49 50
000
ASUS45 KCYS 210710
RWRWY

WYOMING REGIONAL WEATHER ROUNDUP
NATIONAL WEATHER SERVICE CHEYENNE WY
1200 AM MST SUN JAN 21 2018

NOTE:  "FAIR" INDICATES FEW OR NO CLOUDS BELOW 12,000 FEET
WITH NO SIGNIFICANT WEATHER AND/OR OBSTRUCTIONS TO VISIBILITY.

WYZ001-210800-
YELLOWSTONE NATIONAL PARK

CITY           SKY/WX    TMP DP  RH WIND       PRES   REMARKS
LK YELLOWSTONE   N/A     -7 -11  83 CALM      29.93S
W YELLOWSTONE  NOT AVBL

$$
WYZ002>013-054>058-071-098>099-210800-
NORTHERN WYOMING

CITY           SKY/WX    TMP DP  RH WIND       PRES   REMARKS
JACKSON        MOCLDY    16   9  74 N7        29.91R WCI   6
CODY           FAIR      24  21  88 W3        29.96S
GREYBULL       FAIR      23  19  85 SE5       29.98R WCI  17
WORLAND        CLOUDY    25  23  92 S7        29.97R WCI  17
SHERIDAN       CLOUDY    25  19  78 S5        29.98R WCI  19
BUFFALO        CLOUDY    28  12  51 CALM      29.96R
GILLETTE       CLOUDY    27  22  81 W9        29.95S WCI  18
HULETT         CLOUDY    28  27  93 SW3       29.96S
NEWCASTLE      LGT SNOW  28  27  93 NW7       29.94S WCI  21

$$
WYZ014>020-022>026-101>103-210800-
CENTRAL WYOMING

CITY           SKY/WX    TMP DP  RH WIND       PRES   REMARKS
BIG PINEY      LGT SNOW  20  16  84 N9        29.83S FOG     WCI   9
PINEDALE       CLOUDY    19  14  79 NW10      29.82S WCI   8
DUBOIS         CLOUDY    19  18  93 SE7       29.86R FOG     WCI  10
LANDER         LGT SNOW  22  21  96 N8        29.92R FOG     WCI  12
RIVERTON       LGT SNOW  23  20  88 N8        29.93R FOG     WCI  14
CASPER         SNOW      22  22 100 N24       29.91F VSB 1/2 WCI   5
DOUGLAS        LGT SNOW  25  24  96 NW8       29.93R FOG     WCI  16

$$
WYZ021-027>030-104>119-210800-
SOUTHERN WYOMING

CITY           SKY/WX    TMP DP  RH WIND       PRES   REMARKS
EVANSTON       CLOUDY    17  14  88 NW10      29.87R FOG     WCI   5
FORT BRIDGER   LGT SNOW  20  20 100 W10       29.88R VSB 1   WCI   8
ROCK SPRINGS   CLOUDY    20  14  77 NE13      29.84S WCI   7
DIXON            N/A     23  21  92 CALM      29.77R
RAWLINS        FLURRIES  20  15  81 NE15      29.77F WCI   6
LARAMIE        FLURRIES  23  20  88 E6        29.74R WCI  16
CHEYENNE       FOG       24  24 100 E13       29.78R VSB 1/2 WCI  12
TORRINGTON     LGT SNOW  28  28 100 E8        29.88F FOG     WCI  20

$$



USA.gov is the U.S. government's official web portal to all federal, state and local government web resources and services.